STARLINK-32704, 62826

Orbit data source: Space-Track

STARLINK-32704, 62826 is a payload satellite owned by SpaceX/Seattle (US) in LEO that was launched on Fri, 24 Jan 2025 UTC via an FALCON 9 launch vehicle from the Air Force Western Test Range (AFWTR). Payloads include a variety of satellites, spacecraft, and rockets equipped with specific instruments for various scientific and technological missions. These include communications satellites like Starlink; space stations such as the ISS; scientific satellites like the Hubble; Earth observation satellites from companies like Planet Labs, Umbra, and HawkEye 360; GPS; miniature CubeSats for education and research; and military/defense satellites.

Loading next visibility...
STARLINK-32704 details
Identifier
62826, 2025-018W
Orbit
LEO
Last TLE update9 hours ago
Origin
Flag of USSpaceX/Seattle (US)
ManufacturerSpaceX/Seattle
MissionOperational spacecraft
Bus & MotorSTARLINK V2M, Unknown motor
Mass730 kg wet, ~700 kg dry
Launch date (UTC)
2025-01-24 (3 weeks ago)
Launch vehicle
FALCON 9
Launch site
Air Force Western Test Range (AFWTR)
Object type
Payload
Rocket body
Debris
Shape & HBRUnknown
Radar Cross SectionLarge (>1 m²)

Expand to show TLE details & history

TLE from 9 hours ago
0 STARLINK-32704
1 62826U 25018W   25047.16668981 -.01594905  00000-0 -25309-1 0  9998
2 62826  53.1589 312.4755 0000777  81.0155 293.1949 15.55651373  4827
Epoch: 2025-02-16T04:00Z
Definitive object data (Epoch: 2025-02-16T04:00:01.999Z)
Latitude11.31407°
Longitude114.63611°
Altitude400.197 km
Speed7.673 km/s
True Right ascension21h 24m 11s
True Declination11° 14' 41"
Sunlit
Object was in daylight at TLE epoch
Visualization TLE readout
Latitude-48.70618°
Longitude46.25338°
Altitude421.246 km
Speed7.658 km/s
Apparent Right ascension23h 17m 45s
Apparent Declination-80° 46' 13"
Sunlit
Object is in daylight
Visualization observer readout
Local Sidereal Time15:40:26
Azimuth168.442° S
Elevation-43.16°
Doppler factor1
Orbital elements
Apogee altitude401.046 km
Perigee altitude399.992 km
Semi-major axis6,778.656 km
Eccentricity0.0000777
Inclination53.1589°
RAAN312.4755°
Arg. of periapsis81.0155°
True anomaly293.18672°
Mean anomaly293.1949°
Eccentric anomaly293.19081°
Mean motion3.88891 °/min
BSTAR-0.025309
Orbital period92.57 mins
Loading maneuver chart data...
Loading historical data...
Loading historical data...
Loading historical data...
Loading historical data...
Loading historical data...
Loading historical data...
Loading historical data...

STARLINK-32704 Visibility forecast

Observer location: undefined°, undefined

Span
Click to sort rows by Start time (UTC) header in descending order
Start Az.
Max El. time (UTC)
Max El. Az.
Max El.
End time (UTC)
End Az.
4 mins2025-02-16 19:31:50.368Z183.768° SSW2025-02-16 19:33:50.368Z139.794° SSE22.728°2025-02-16 19:35:50.368Z86.507° E
4 mins2025-02-16 21:08:50.368Z279.012° WNW2025-02-16 21:10:50.368Z345.189° N26.799°2025-02-16 21:12:50.368Z28.686° NE
4 mins2025-02-17 03:37:50.368Z279.58° WNW2025-02-17 03:38:50.368Z250.203° W30.554°2025-02-17 03:41:50.368Z159.352° S
|